FENGYUN 1C DEB, 31485

Orbit data source: Space-Track

FENGYUN 1C DEB, 31485 is space debris in SSO originally from a launch on Mon, 10 May 1999 UTC launched from the Taiyaun Space Center, China (TSC). Fengyun 1C debris stems from the Chinese weather satellite Fengyun-1C, which was intentionally destroyed by a Chinese anti-satellite missile in 2007. This event dramatically increased the amount of space debris, with thousands of trackable fragments posing hazards to satellites and human spaceflight. The Fengyun 1C debris cloud has become a focal point in discussions about space sustainability and the need for international regulations to prevent the creation of new debris.

Loading next visibility...
Identifier
31485, 1999-025BVZ
Orbit
SSO
Country
Flag of CNCN / PRC
Related business
Manufacturer
Unknown
Mission
Spacecraft
Bus & Motor
Unknown
Mass
Unknown
Launch date (UTC)
1999-05-10 (27 years ago)
Launch vehicle
Unknown
Launch site
Taiyaun Space Center, China (TSC)
Object type
Payload
Rocket body
Debris
Shape & HBR
Unknown shape, 0.1 m
Radar Cross Section
Medium (>0.1 m² and <1 m²)

Expand to show TLE details & history
Last TLE update: 1 day ago

TLE from 1 day ago
0 FENGYUN 1C DEB
1 31485U 99025BVZ 26208.16798742  .00001631  00000-0  17220-2 0  9993
2 31485 102.7106  98.5569 0441096 189.0007 170.3007 13.41204314934794
Epoch: 2026-07-27T04:01Z
TLE epoch observation values (Epoch: 2026-07-27T04:01:54.113Z)
Latitude
0.00006°
Longitude
93.22597°
Altitude
1,433.251 km
Speed
6.988 km/s
True Right ascension
06h 34m 13s
True Declination
0° 00' 00"
Sunlit
Object was in daylight at epoch
Visualization orbit readout
Latitude
Unknown
Longitude
Unknown
Altitude
Unknown
Speed
Unknown
Apparent Right ascension
Unknown
Apparent Declination
Unknown
Sunlit
N/A
Visualization observer readout
Local Sidereal Time
23:25:59
Azimuth
Unknown
Elevation
Unknown
Doppler factor
Unknown
Orbital elements
Apogee altitude
1,432.237 km
Perigee altitude
772.321 km
Semi-major axis
7,480.416 km
Eccentricity
0.04411
Inclination
102.7106°
RAAN
98.5569°
Arg. of periapsis
189.0007°
True anomaly
171.10828°
Mean anomaly
170.3007°
Eccentric anomaly
170.70874°
Mean motion
3.35471 °/min
Orbital period
107.31 mins
BSTAR
0.001722
Loading maneuver chart data...
Computing Atmospheric mass density...

Documentation

Showing up to 5 results
|